Location: Arbon
(43.0005°N, 0.7472°E)
Time: 09:09:40
(UTC+00:00)

Vanguard 2 Rocket - Pass Details

Date: 05 December 2020
Orbit: 554 x 3325 km, 32.9° (Epoch: 21 January)

Event Time Altitude Azimuth Distance (km) Brightness Sun altitude
Rises 11:26:21 0° 278° (W) 7,318 11.4 24.4°
Reaches altitude 10° 11:31:56 10° 272° (W) 6,230 11.2 24.4°
Maximum altitude 11:48:26 38° 214° (SW) 3,658 11.1 24.5°
Drops below altitude 10° 12:00:04 10° 153° (SSE) 4,413 11.5 24.5°
Sets 12:03:17 0° 144° (SE) 5,060 11.5 24.4°
